When you browse on this site, cookies collect data to enhance your experience and personalize the content and advertising you see.
Visit our Privacy Policy to learn more. By continuing to use the site, you agree to this use of cookies and data.
  • în România
  • Lista ţărilor
  • Pe 7 zile
  • Temperatura apei
  • Meteo pe hartă
  • Widget-uri
  • user-avatar
    Intrare

    Meteo pe oră la Sarcelles

    Astăzi, 25 August, Duminică

    Timp Temperatura Precipitaţii Vânt Presiune Umiditate
    00:00 +23°C° 0 mm 1 m/s 756 mmHg 53%
    01:00 +23°C° 0 mm 1 m/s 756 mmHg 55%
    02:00 +22°C° 0 mm 1 m/s 756 mmHg 56%
    03:00 +22°C° 0 mm 1 m/s 756 mmHg 57%
    04:00 +22°C° 0 mm 1 m/s 756 mmHg 58%
    05:00 +22°C° 0 mm 1 m/s 756 mmHg 59%
    06:00 +22°C° 0 mm 1 m/s 756 mmHg 59%
    07:00 +24°C° 0 mm 1 m/s 756 mmHg 53%
    08:00 +26°C° 0 mm 1 m/s 757 mmHg 47%
    09:00 +28°C° 0 mm 1 m/s 757 mmHg 41%
    10:00 +30°C° 0 mm 1 m/s 757 mmHg 36%
    11:00 +32°C° 0 mm 1 m/s 757 mmHg 32%
    12:00 +33°C° 0 mm 1 m/s 757 mmHg 28%
    13:00 +34°C° 0 mm 1 m/s 757 mmHg 26%
    14:00 +34°C° 0 mm 1 m/s 756 mmHg 24%
    15:00 +33°C° 0 mm 0 m/s 756 mmHg 22%
    16:00 +33°C° 0 mm 1 m/s 756 mmHg 25%
    17:00 +32°C° 0 mm 1 m/s 756 mmHg 29%
    18:00 +31°C° 0 mm 2 m/s 756 mmHg 32%
    19:00 +29°C° 0 mm 2 m/s 756 mmHg 36%
    20:00 +28°C° 0 mm 2 m/s 757 mmHg 39%
    21:00 +26°C° 0 mm 2 m/s 757 mmHg 43%
    22:00 +26°C° 0 mm 2 m/s 757 mmHg 45%
    23:00 +25°C° 0 mm 1 m/s 757 mmHg 46%

    Mâine, 26 August, Luni

    Timp Temperatura Precipitaţii Vânt Presiune Umiditate
    00:00 +24°C° 0 mm 1 m/s 757 mmHg 48%
    01:00 +24°C° 0 mm 1 m/s 757 mmHg 49%
    02:00 +23°C° 0 mm 1 m/s 757 mmHg 51%
    03:00 +21°C° 0 mm 0 m/s 757 mmHg 53%
    04:00 +23°C° 0 mm 1 m/s 756 mmHg 54%
    05:00 +23°C° 0 mm 1 m/s 756 mmHg 55%
    06:00 +23°C° 0 mm 1 m/s 756 mmHg 57%
    07:00 +25°C° 0 mm 1 m/s 757 mmHg 52%
    08:00 +27°C° 0 mm 1 m/s 757 mmHg 47%
    09:00 +29°C° 0 mm 1 m/s 757 mmHg 42%
    10:00 +30°C° 0 mm 1 m/s 757 mmHg 38%
    11:00 +31°C° 0 mm 2 m/s 756 mmHg 34%
    12:00 +34°C° 0 mm 2 m/s 756 mmHg 29%
    13:00 +34°C° 0 mm 2 m/s 756 mmHg 28%
    14:00 +34°C° 0 mm 2 m/s 755 mmHg 26%
    15:00 +35°C° 0 mm 2 m/s 755 mmHg 25%
    16:00 +34°C° 0 mm 2 m/s 755 mmHg 28%
    17:00 +32°C° 0 mm 2 m/s 755 mmHg 32%
    18:00 +30°C° 0 mm 2 m/s 755 mmHg 36%
    19:00 +29°C° 0 mm 2 m/s 755 mmHg 39%
    20:00 +28°C° 0 mm 2 m/s 755 mmHg 42%
    21:00 +26°C° 0 mm 2 m/s 755 mmHg 45%
    22:00 +26°C° 0 mm 2 m/s 755 mmHg 46%
    23:00 +25°C° 0 mm 2 m/s 755 mmHg 47%

    Poimâine, 27 August, Marţi

    Timp Temperatura Precipitaţii Vânt Presiune Umiditate
    00:00 +24°C° 0 mm 1 m/s 755 mmHg 48%
    01:00 +24°C° 0 mm 1 m/s 755 mmHg 50%
    02:00 +24°C° 0 mm 1 m/s 755 mmHg 52%
    03:00 +23°C° 0 mm 1 m/s 755 mmHg 53%
    04:00 +23°C° 0 mm 1 m/s 755 mmHg 55%
    05:00 +23°C° 0 mm 1 m/s 755 mmHg 57%
    06:00 +23°C° 0 mm 1 m/s 755 mmHg 59%
    07:00 +25°C° 0 mm 1 m/s 755 mmHg 53%
    08:00 +27°C° 0 mm 2 m/s 755 mmHg 48%
    09:00 +29°C° 0 mm 2 m/s 755 mmHg 42%
    10:00 +30°C° 0 mm 2 m/s 755 mmHg 38%
    11:00 +32°C° 0 mm 2 m/s 755 mmHg 34%
    12:00 +34°C° 0 mm 2 m/s 755 mmHg 29%
    13:00 +35°C° 0 mm 2 m/s 754 mmHg 28%
    14:00 +35°C° 0 mm 2 m/s 754 mmHg 26%
    15:00 +36°C° 0 mm 2 m/s 753 mmHg 25%
    16:00 +34°C° 0 mm 2 m/s 753 mmHg 28%
    17:00 +32°C° 0 mm 2 m/s 753 mmHg 31%
    18:00 +31°C° 0 mm 2 m/s 753 mmHg 35%
    19:00 +30°C° 0 mm 2 m/s 753 mmHg 37%
    20:00 +29°C° 0 mm 2 m/s 753 mmHg 40%
    21:00 +27°C° 0 mm 2 m/s 753 mmHg 42%
    22:00 +27°C° 0 mm 2 m/s 753 mmHg 43%
    23:00 +26°C° 0 mm 2 m/s 753 mmHg 45%

    28 August, Miercuri

    Timp Temperatura Precipitaţii Vânt Presiune Umiditate
    00:00 +26°C° 0 mm 2 m/s 753 mmHg 46%
    01:00 +25°C° 0 mm 2 m/s 753 mmHg 47%
    02:00 +25°C° 0 mm 2 m/s 752 mmHg 49%
    03:00 +25°C° 0 mm 1 m/s 752 mmHg 50%
    04:00 +24°C° 0.1 mm 1 m/s 752 mmHg 52%
    05:00 +24°C° 0.1 mm 1 m/s 752 mmHg 54%
    06:00 +24°C° 0.1 mm 2 m/s 752 mmHg 56%
    07:00 +25°C° 0.2 mm 2 m/s 752 mmHg 55%
    08:00 +25°C° 0.2 mm 2 m/s 752 mmHg 55%
    09:00 +26°C° 0.2 mm 2 m/s 752 mmHg 54%
    10:00 +27°C° 0 mm 2 m/s 752 mmHg 49%
    11:00 +29°C° 0 mm 3 m/s 752 mmHg 44%
    12:00 +31°C° 0 mm 3 m/s 752 mmHg 40%
    13:00 +31°C° 0 mm 3 m/s 752 mmHg 39%
    14:00 +31°C° 0 mm 3 m/s 752 mmHg 39%
    15:00 +31°C° 0 mm 3 m/s 751 mmHg 38%
    16:00 +30°C° 0 mm 3 m/s 751 mmHg 42%
    17:00 +29°C° 0 mm 2 m/s 751 mmHg 46%
    18:00 +28°C° 0 mm 1 m/s 751 mmHg 49%
    19:00 +27°C° 0.3 mm 1 m/s 752 mmHg 54%
    20:00 +26°C° 0.3 mm 1 m/s 752 mmHg 58%
    21:00 +24°C° 0.3 mm 1 m/s 753 mmHg 63%
    22:00 +24°C° 0.4 mm 1 m/s 753 mmHg 67%
    23:00 +23°C° 0.4 mm 2 m/s 753 mmHg 71%

    29 August, Joi

    Timp Temperatura Precipitaţii Vânt Presiune Umiditate
    00:00 +23°C° 0.4 mm 2 m/s 753 mmHg 75%
    01:00 +21°C° 0.4 mm 2 m/s 753 mmHg 78%
    02:00 +20°C° 0.4 mm 3 m/s 754 mmHg 82%
    03:00 +19°C° 0.4 mm 3 m/s 754 mmHg 85%
    04:00 +19°C° 0 mm 3 m/s 754 mmHg 84%
    05:00 +18°C° 0 mm 3 m/s 755 mmHg 83%
    06:00 +18°C° 0 mm 3 m/s 755 mmHg 83%
    07:00 +18°C° 0 mm 4 m/s 756 mmHg 78%
    08:00 +19°C° 0 mm 4 m/s 756 mmHg 73%
    09:00 +20°C° 0 mm 4 m/s 757 mmHg 68%
    10:00 +21°C° 0 mm 4 m/s 757 mmHg 60%
    11:00 +22°C° 0 mm 4 m/s 757 mmHg 53%
    12:00 +23°C° 0 mm 4 m/s 757 mmHg 46%
    13:00 +25°C° 0 mm 4 m/s 757 mmHg 43%
    14:00 +25°C° 0 mm 4 m/s 758 mmHg 41%
    15:00 +25°C° 0 mm 4 m/s 758 mmHg 39%
    16:00 +23°C° 0 mm 4 m/s 758 mmHg 42%
    17:00 +22°C° 0 mm 4 m/s 758 mmHg 45%
    18:00 +21°C° 0 mm 3 m/s 758 mmHg 48%
    19:00 +19°C° 0 mm 3 m/s 759 mmHg 54%
    20:00 +18°C° 0 mm 3 m/s 759 mmHg 59%
    21:00 +16°C° 0 mm 2 m/s 760 mmHg 65%
    22:00 +16°C° 0 mm 2 m/s 760 mmHg 67%
    23:00 +15°C° 0 mm 2 m/s 760 mmHg 69%

    30 August, Vineri

    Timp Temperatura Precipitaţii Vânt Presiune Umiditate
    00:00 +15°C° 0 mm 2 m/s 760 mmHg 72%
    01:00 +14°C° 0 mm 1 m/s 760 mmHg 74%
    02:00 +14°C° 0 mm 1 m/s 760 mmHg 76%
    03:00 +14°C° 0 mm 1 m/s 760 mmHg 77%
    04:00 +14°C° 0 mm 1 m/s 760 mmHg 76%
    05:00 +14°C° 0 mm 1 m/s 760 mmHg 75%
    06:00 +14°C° 0 mm 1 m/s 760 mmHg 74%
    07:00 +16°C° 0 mm 1 m/s 761 mmHg 68%
    08:00 +18°C° 0 mm 1 m/s 761 mmHg 61%
    09:00 +20°C° 0 mm 1 m/s 761 mmHg 55%
    10:00 +21°C° 0 mm 1 m/s 761 mmHg 49%
    11:00 +23°C° 0 mm 1 m/s 760 mmHg 42%
    12:00 +25°C° 0 mm 1 m/s 760 mmHg 36%
    13:00 +25°C° 0 mm 1 m/s 760 mmHg 34%
    14:00 +25°C° 0 mm 1 m/s 759 mmHg 33%
    15:00 +25°C° 0 mm 1 m/s 759 mmHg 31%
    16:00 +25°C° 0 mm 1 m/s 759 mmHg 34%
    17:00 +24°C° 0 mm 1 m/s 759 mmHg 38%
    18:00 +23°C° 0 mm 1 m/s 758 mmHg 41%
    19:00 +21°C° 0 mm 1 m/s 759 mmHg 47%
    20:00 +19°C° 0 mm 2 m/s 759 mmHg 53%
    21:00 +18°C° 0 mm 2 m/s 759 mmHg 59%
    22:00 +17°C° 0 mm 2 m/s 759 mmHg 64%
    23:00 +17°C° 0 mm 2 m/s 758 mmHg 69%
    Arată mai mult